Location: Zagreb
(45.8000°N, 16.0000°E)
Time: 13:32:17
(UTC+02:00)

Altair - Visible Passes

Search period start: 19 July 2024 00:00
Search period end: 29 July 2024 00:00
Orbit: 1502 x 1682 km, 47.2° (Epoch: 18 July)

Date Brightness Start Highest point End Pass type
(mag) Time Alt. Az. Time Alt. Az. Time Alt. Az.
19 Jul 7.3 00:22:31 10° WNW 00:31:40 75° SSW 00:39:34 15° ESE visible
19 Jul 8.0 02:27:38 10° WNW 02:35:23 32° SW 02:37:23 29° SSW visible
19 Jul 7.5 21:52:23 10° W 22:01:40 82° N 22:10:55 10° E visible
19 Jul 7.3 23:57:19 10° WNW 00:06:30 78° SSW 00:13:48 18° ESE visible
20 Jul 7.9 02:02:20 10° WNW 02:10:17 34° SW 02:11:40 33° SSW visible
20 Jul 7.6 21:27:08 10° W 21:36:27 82° N 21:45:41 10° E visible
20 Jul 7.3 23:32:06 10° WNW 23:41:19 81° SSW 23:48:34 18° ESE visible
21 Jul 7.8 01:37:04 10° WNW 01:45:11 37° SW 01:46:29 36° SSW visible
21 Jul 7.6 21:01:53 10° W 21:11:13 83° N 21:20:27 10° E visible
21 Jul 7.3 23:06:54 10° WNW 23:16:07 83° SSW 23:23:38 17° ESE visible
22 Jul 7.7 01:11:48 10° WNW 01:20:06 40° SW 01:21:34 38° SSW visible
22 Jul 7.4 22:41:41 10° WNW 22:50:56 86° SSW 22:58:53 15° ESE visible
23 Jul 7.7 00:46:34 10° WNW 00:55:00 43° SW 00:56:49 39° SSW visible
23 Jul 7.4 22:16:27 10° WNW 22:25:44 88° SSW 22:34:16 13° ESE visible
24 Jul 7.7 00:21:19 10° WNW 00:29:53 46° SW 00:32:14 39° S visible
24 Jul 9.0 02:29:03 10° W 02:30:11 11° WSW 02:30:11 11° WSW visible
24 Jul 7.5 21:51:13 10° WNW 22:00:32 90° N 22:09:44 10° ESE visible
24 Jul 7.6 23:56:05 10° WNW 00:04:46 49° SW 00:07:43 38° S visible
25 Jul 9.0 02:03:10 10° W 02:05:40 14° WSW 02:05:40 14° WSW visible
25 Jul 7.5 21:26:00 10° WNW 21:35:20 88° NNE 21:44:33 10° ESE visible
25 Jul 7.6 23:30:51 10° WNW 23:39:39 52° SW 23:43:17 35° SSE visible
26 Jul 8.8 01:37:28 10° W 01:41:14 16° WSW 01:41:14 16° WSW visible
26 Jul 7.5 21:00:46 10° W 21:10:07 86° N 21:19:20 10° E visible
26 Jul 7.6 23:05:38 10° WNW 23:14:31 56° SSW 23:18:55 31° SSE visible
27 Jul 8.7 01:11:54 10° W 01:16:54 18° WSW 01:16:54 18° WSW visible
27 Jul 7.6 22:40:24 10° WNW 22:49:22 59° SSW 22:54:37 27° SE visible
28 Jul 8.6 00:46:23 10° W 00:52:34 20° SW 00:52:35 20° SW visible
28 Jul 7.5 22:15:11 10° WNW 22:24:14 62° SSW 22:30:22 23° SE visible
